Wind_Speed
34 35 36 37 37 38 38 39 41 44 46 49 52 54 57 58 59 60 59 58 57 57 57 57 57 58 58 57 56 56 58 58 58 57 56 56 57 55 54 55 57 57 59
32 33 35 35 35 36 36 38 40 42 44 47 49 50 52 52 51 51 51 50 50 50 51 52 52 53 54 54 55 55 56 57 57 59 60 58 58 59 60 60 60 61 62
31 32 32 32 33 34 35 36 38 39 41 43 44 45 44 43 42 41 40 40 40 41 43 45 46 48 49 50 52 54 55 55 56 57 57 58 60 60 61 62 63 64 65
29 30 30 31 32 32 33 35 36 37 39 39 39 39 38 38 36 34 33 32 33 34 35 37 40 41 44 46 48 50 52 53 54 55 56 57 58 60 62 63 63 64 65
29 29 29 30 31 32 32 33 34 34 35 35 35 35 34 33 32 29 28 27 27 28 30 32 35 36 38 40 42 44 45 47 48 50 52 55 57 58 60 61 61 62 64
29 28 29 29 30 30 31 31 32 32 32 32 32 31 30 29 27 25 23 21 21 22 23 25 27 28 31 34 36 38 40 42 44 46 49 52 54 55 57 58 60 62 64
26 27 27 28 28 28 29 29 29 30 29 29 28 27 26 25 23 21 19 17 16 16 17 19 21 23 26 29 30 31 34 37 40 43 45 47 49 51 54 57 60 62 65
24 24 25 25 26 26 27 27 27 26 26 26 25 24 22 21 20 19 17 16 14 13 13 13 15 17 20 22 25 28 31 33 36 39 42 45 48 52 55 58 60 62 64
22 22 22 23 23 23 24 24 24 23 23 22 21 20 20 19 18 17 17 15 14 13 13 12 13 14 17 19 22 25 28 31 35 39 43 47 51 54 57 59 59 59 58
20 20 20 20 20 21 21 21 21 21 20 20 19 19 18 18 17 16 16 15 14 13 12 14 15 16 18 21 24 27 31 35 39 42 46 49 52 55 56 56 55 54 52
18 19 19 19 19 20 20 19 19 19 19 19 19 18 18 18 17 17 16 16 15 15 16 17 19 21 23 26 29 33 36 39 43 46 48 51 53 54 54 53 51 49 48
18 18 18 18 19 19 19 19 19 19 19 19 19 18 18 18 18 18 18 18 18 19 21 22 25 27 30 32 35 37 40 43 46 48 50 52 52 52 51 49 47 46 45
18 19 19 19 19 19 19 19 19 19 19 19 19 19 19 19 20 20 21 22 23 24 26 28 30 32 34 36 39 41 43 46 48 50 51 52 52 51 49 47 46 45 44
19 20 20 19 19 19 19 19 19 20 20 19 20 20 20 21 22 23 24 26 27 29 30 32 34 36 37 40 42 44 46 48 50 51 52 52 51 49 47 46 44 43 43
21 21 21 21 20 21 21 21 21 21 21 21 22 22 23 24 25 26 27 29 30 32 33 35 37 38 40 42 44 45 47 49 51 51 51 51 49 47 46 45 44 43 42
22 22 22 22 22 22 22 22 23 23 23 24 24 25 26 27 28 29 30 32 33 34 35 37 39 40 42 44 45 47 49 51 52 52 50 49 47 46 45 45 44 43 42
23 24 24 24 24 24 24 24 25 25 26 27 27 28 29 30 31 32 33 34 36 37 38 39 40 41 43 45 47 49 51 52 52 51 49 48 46 46 45 45 44 43 42
24 25 25 25 26 26 26 26 27 27 28 29 30 31 31 32 33 34 35 36 38 39 40 41 41 43 45 47 49 51 52 52 51 50 48 47 46 45 44 44 43 42 41
25 26 26 27 27 27 27 28 28 29 30 30 31 32 33 34 35 36 37 38 39 40 41 42 43 45 47 49 51 52 52 52 50 48 47 46 46 45 44 43 42 41 41
27 27 27 28 28 28 29 30 30 31 31 32 33 33 34 35 36 37 38 39 40 41 42 43 44 46 49 51 52 52 52 51 49 47 46 45 44 44 43 42 41 40 40
28 28 28 29 29 30 31 31 31 32 32 33 33 34 35 35 36 37 39 40 41 42 43 44 46 48 50 52 53 52 52 50 48 46 45 44 43 42 41 40 40 40 39
28 29 29 30 30 30 30 31 31 32 32 33 34 34 35 36 37 38 40 41 41 42 43 45 47 50 52 53 53 52 50 49 47 45 44 42 41 40 39 39 38 38 37
30 30 30 30 30 30 30 31 32 32 33 33 34 34 35 37 38 39 40 41 42 43 45 46 49 51 53 53 52 50 49 47 45 44 42 40 39 38 37 36 36 35 35
31 31 31 31 31 31 32 32 32 33 33 33 34 35 36 37 38 39 40 41 42 44 46 48 50 52 53 52 50 49 47 46 44 42 40 37 36 35 35 34 33 33 33
31 31 31 31 31 32 32 32 32 33 33 33 34 35 37 38 39 39 40 42 43 45 47 48 50 52 52 51 49 48 46 45 43 40 37 35 33 33 33 32 31 31 31
30 30 31 31 31 31 32 32 32 32 33 34 35 36 37 38 38 39 40 42 43 45 47 49 51 51 51 50 48 47 45 43 41 39 37 34 33 32 31 30 29 29 30
Wind_Direction
277 280 282 285 288 290 292 294 296 297 298 299 298 297 295 292 289 285 281 276 271 267 263 261 258 257 256 256 257 259 261 263 266 269 274 276 277 279 282 284 284 284 285
279 282 285 287 289 291 294 297 299 300 302 303 303 302 301 299 295 290 284 279 273 268 264 260 257 255 254 254 255 256 259 262 265 268 272 274 278 283 285 288 288 286 286
282 285 287 288 290 293 295 297 302 304 306 308 309 309 308 307 302 297 289 282 276 270 265 260 256 254 253 253 255 256 259 263 266 270 273 277 280 283 285 287 288 288 288
284 286 287 288 291 294 297 300 304 306 309 313 315 316 315 314 310 302 294 287 279 271 265 261 257 254 253 254 256 258 261 264 268 270 274 278 281 283 285 287 288 288 289
286 286 287 290 291 294 298 302 304 307 311 317 320 321 322 321 316 309 302 294 285 276 269 263 259 255 254 255 257 260 262 266 270 273 276 279 282 284 286 287 289 290 291
286 287 288 291 292 295 299 303 306 309 313 318 323 325 327 327 323 318 312 303 294 284 276 268 261 258 256 258 260 262 264 268 271 274 277 280 283 285 287 289 291 292 292
288 288 290 292 294 297 302 305 308 311 315 320 325 329 331 332 331 328 323 315 305 296 286 277 268 262 260 260 264 266 269 272 275 277 281 284 286 289 291 293 294 295 295
291 292 294 295 297 301 304 307 310 314 317 320 326 331 335 337 337 334 329 325 317 306 296 288 280 272 272 272 271 273 276 279 282 285 287 289 291 292 294 296 298 298 299
294 294 296 299 301 304 308 311 314 317 321 325 330 334 337 338 338 337 334 331 323 314 307 302 295 290 287 285 286 288 289 290 291 293 294 295 296 298 300 301 302 302 302
297 297 299 302 305 308 311 314 317 320 324 328 333 336 337 339 340 340 341 340 336 330 321 316 311 308 305 303 301 299 298 298 298 298 299 300 302 303 304 304 304 304 303
298 298 301 304 307 310 312 315 318 322 325 329 332 334 337 338 337 338 338 338 336 331 325 321 316 313 310 307 304 303 302 302 302 302 303 304 305 306 306 305 304 304 303
298 299 301 305 308 310 313 316 319 323 325 327 329 330 332 332 332 331 330 328 325 322 319 316 313 311 310 308 306 305 305 306 306 306 306 307 308 308 307 306 305 304 304
296 297 300 303 306 309 312 314 317 319 320 322 323 324 324 324 323 322 320 318 316 315 313 312 311 310 310 309 309 308 308 308 308 308 308 308 308 307 306 306 305 305 306
293 295 296 299 302 306 309 311 313 314 315 316 317 318 318 317 317 316 314 313 313 312 312 312 311 311 311 311 310 310 310 310 310 309 309 309 307 305 304 304 305 306 307
290 292 294 295 298 302 305 307 308 310 311 312 313 314 314 314 315 314 313 313 312 312 312 312 312 311 311 312 312 312 312 311 311 310 309 307 306 304 303 303 303 304 305
288 289 291 293 296 298 300 302 304 306 308 310 311 312 313 314 314 314 313 313 313 313 312 313 313 312 312 313 313 313 313 312 311 310 308 305 303 302 302 301 302 302 304
285 286 288 290 293 295 297 300 302 304 307 309 311 312 312 313 314 314 314 314 314 314 314 314 314 314 314 314 314 314 314 313 311 309 306 304 302 301 300 300 301 302 303
283 284 286 288 290 293 295 298 301 303 305 307 309 310 311 312 313 314 314 315 315 315 315 315 315 315 316 316 316 315 314 313 311 309 306 304 303 301 301 300 300 301 302
281 283 286 287 289 291 294 297 300 302 304 305 307 308 310 311 312 314 315 316 316 316 316 316 316 317 317 318 317 317 316 314 312 310 307 305 303 302 301 301 300 300 302
280 282 285 287 288 289 292 296 299 301 303 305 307 308 309 310 312 314 315 317 317 317 317 317 318 319 319 319 319 318 317 315 313 311 308 306 305 304 302 301 300 300 301
278 281 284 287 288 289 292 295 297 300 303 305 306 308 309 311 313 314 316 317 318 318 318 318 319 320 321 321 320 319 318 317 314 312 310 308 306 305 303 302 301 301 301
278 281 284 286 288 289 292 294 296 299 302 304 306 307 309 311 313 315 316 317 318 319 319 320 321 322 322 322 322 321 320 318 316 314 312 310 308 306 305 304 304 303 302
277 280 283 285 287 289 291 294 296 298 300 302 304 307 309 312 314 315 317 318 319 319 320 321 322 323 324 323 323 323 322 321 319 318 315 312 310 308 307 306 306 305 304
276 279 281 284 286 288 290 292 295 297 299 301 304 306 309 312 314 316 318 319 319 320 321 322 324 324 325 324 324 324 323 323 322 320 319 316 313 311 309 309 308 307 306
275 277 280 282 285 287 289 291 293 295 297 300 303 307 309 312 314 316 318 319 320 321 322 323 325 325 325 325 324 324 324 324 323 323 321 319 317 314 313 311 310 309 308
275 278 280 282 284 287 289 291 293 294 296 300 303 306 309 312 314 316 318 319 321 322 323 324 326 326 326 326 326 325 325 325 324 324 323 322 320 318 317 315 313 311 310
Height
5720 5719 5717 5715 5713 5711 5708 5705 5701 5696 5691 5685 5679 5672 5664 5657 5649 5643 5638 5635 5634 5635 5636 5639 5642 5646 5650 5655 5658 5661 5663 5665 5665 5666 5665 5664 5663 5662 5660 5659 5658 5656 5654
5712 5710 5708 5706 5704 5701 5698 5694 5690 5685 5679 5673 5665 5657 5649 5640 5632 5626 5621 5619 5618 5618 5620 5623 5626 5631 5635 5640 5643 5646 5649 5650 5651 5652 5651 5650 5649 5647 5646 5644 5642 5640 5637
5703 5702 5700 5697 5695 5692 5689 5685 5680 5675 5669 5662 5654 5645 5636 5628 5620 5613 5609 5606 5605 5605 5607 5610 5613 5617 5622 5626 5629 5633 5635 5637 5638 5638 5638 5637 5635 5634 5632 5629 5626 5622 5619
5695 5693 5691 5689 5687 5683 5680 5676 5671 5666 5660 5652 5644 5635 5627 5619 5611 5605 5601 5598 5596 5596 5598 5600 5603 5606 5610 5614 5618 5621 5623 5625 5626 5627 5626 5624 5622 5620 5617 5613 5609 5605 5601
5688 5686 5684 5681 5679 5676 5672 5668 5663 5658 5652 5645 5637 5629 5620 5613 5606 5600 5595 5592 5591 5590 5591 5592 5594 5597 5600 5604 5608 5610 5613 5614 5615 5614 5613 5611 5609 5606 5602 5598 5594 5589 5584
5680 5678 5676 5674 5671 5668 5665 5661 5656 5651 5645 5638 5631 5624 5616 5609 5603 5597 5592 5589 5587 5585 5585 5586 5588 5590 5593 5596 5599 5601 5603 5604 5604 5603 5601 5599 5596 5592 5588 5583 5579 5574 5567
5674 5672 5669 5667 5665 5661 5658 5654 5649 5644 5639 5633 5626 5620 5613 5607 5601 5596 5591 5588 5586 5584 5583 5583 5584 5586 5588 5590 5591 5593 5594 5594 5593 5592 5590 5586 5583 5579 5574 5569 5563 5556 5549
5667 5665 5663 5661 5658 5655 5652 5648 5643 5639 5634 5628 5623 5617 5611 5605 5600 5595 5591 5588 5585 5584 5583 5582 5582 5583 5584 5585 5586 5586 5585 5585 5584 5582 5579 5574 5570 5565 5559 5553 5546 5538 5530
5662 5660 5658 5655 5652 5649 5646 5642 5638 5634 5629 5624 5619 5614 5609 5604 5599 5595 5591 5588 5586 5584 5583 5582 5581 5580 5581 5580 5580 5579 5578 5576 5573 5570 5566 5561 5556 5549 5543 5536 5528 5521 5513
5656 5654 5652 5650 5647 5644 5641 5637 5633 5629 5625 5620 5616 5611 5607 5603 5599 5595 5592 5589 5586 5584 5582 5581 5580 5579 5577 5576 5574 5572 5570 5567 5563 5558 5553 5547 5540 5534 5526 5519 5512 5505 5498
5652 5650 5647 5645 5642 5639 5636 5633 5629 5625 5621 5617 5613 5609 5605 5601 5598 5594 5591 5588 5586 5583 5581 5579 5577 5575 5573 5570 5567 5564 5560 5556 5551 5545 5539 5533 5526 5518 5511 5504 5497 5490 5484
5647 5645 5643 5640 5638 5635 5632 5628 5625 5621 5618 5614 5610 5606 5603 5599 5596 5592 5589 5587 5584 5581 5578 5575 5572 5569 5566 5562 5558 5554 5549 5544 5538 5532 5525 5518 5511 5503 5496 5489 5483 5477 5471
5642 5640 5638 5636 5633 5630 5627 5624 5621 5618 5614 5611 5607 5604 5600 5597 5593 5590 5587 5583 5580 5577 5573 5570 5566 5562 5558 5553 5548 5543 5538 5532 5525 5518 5511 5504 5496 5489 5483 5476 5470 5464 5458
5637 5636 5633 5631 5629 5626 5623 5620 5617 5614 5610 5607 5604 5600 5597 5593 5590 5586 5582 5578 5575 5571 5567 5562 5558 5553 5549 5544 5538 5532 5526 5520 5513 5505 5498 5490 5483 5476 5470 5464 5458 5452 5447
5632 5630 5628 5626 5624 5621 5618 5616 5613 5610 5606 5603 5599 5596 5592 5589 5585 5581 5577 5573 5568 5564 5559 5555 5550 5545 5539 5533 5527 5521 5514 5507 5500 5492 5484 5477 5470 5463 5457 5451 5446 5441 5436
5626 5624 5623 5621 5618 5616 5613 5611 5607 5604 5601 5598 5594 5591 5587 5583 5579 5575 5570 5566 5561 5556 5551 5546 5541 5535 5529 5523 5517 5510 5502 5495 5487 5479 5471 5464 5457 5451 5445 5439 5434 5429 5424
5619 5618 5616 5615 5613 5610 5608 5605 5602 5599 5595 5592 5588 5584 5580 5576 5572 5567 5563 5558 5553 5548 5542 5537 5531 5526 5519 5513 5505 5498 5490 5482 5473 5465 5458 5451 5445 5439 5433 5427 5422 5417 5412
5612 5611 5610 5608 5606 5604 5601 5599 5596 5593 5589 5585 5582 5578 5574 5569 5565 5560 5555 5550 5545 5539 5533 5528 5522 5515 5509 5501 5494 5486 5477 5468 5460 5452 5444 5438 5431 5426 5420 5414 5409 5404 5400
5605 5604 5603 5601 5599 5597 5594 5592 5589 5586 5582 5579 5575 5571 5567 5562 5557 5552 5547 5542 5536 5530 5524 5518 5512 5505 5498 5490 5482 5473 5464 5455 5447 5439 5431 5424 5418 5412 5407 5402 5397 5392 5388
5598 5597 5595 5593 5591 5589 5587 5584 5582 5578 5575 5571 5568 5564 5559 5555 5550 5544 5539 5533 5527 5521 5515 5508 5502 5494 5487 5478 5469 5460 5451 5442 5433 5426 5418 5411 5405 5399 5394 5389 5384 5380 5376
5590 5589 5587 5586 5584 5582 5579 5577 5574 5571 5567 5564 5560 5556 5551 5547 5542 5536 5531 5525 5519 5512 5505 5499 5492 5484 5476 5467 5457 5448 5438 5429 5421 5413 5406 5399 5392 5387 5381 5377 5372 5368 5364
5582 5581 5579 5578 5576 5574 5571 5569 5566 5563 5559 5556 5552 5548 5543 5538 5533 5528 5522 5516 5510 5503 5496 5489 5481 5473 5464 5455 5445 5436 5426 5417 5409 5401 5394 5387 5381 5375 5370 5365 5361 5356 5352
5573 5572 5571 5569 5568 5565 5563 5561 5558 5555 5551 5548 5544 5540 5535 5530 5525 5519 5513 5507 5500 5494 5486 5479 5471 5462 5453 5443 5434 5424 5415 5406 5398 5390 5383 5376 5370 5364 5359 5355 5350 5346 5342
5565 5564 5562 5561 5559 5557 5555 5552 5549 5546 5543 5539 5536 5531 5527 5522 5516 5511 5504 5498 5491 5484 5477 5469 5461 5452 5442 5433 5423 5414 5405 5397 5388 5380 5373 5367 5360 5355 5350 5345 5341 5336 5332
5556 5555 5553 5552 5550 5548 5546 5543 5541 5538 5534 5531 5527 5523 5518 5513 5507 5502 5496 5489 5482 5475 5467 5459 5451 5441 5432 5422 5413 5404 5395 5387 5379 5371 5365 5358 5352 5347 5341 5337 5332 5328 5324
5546 5546 5544 5543 5541 5539 5537 5535 5532 5529 5526 5522 5518 5514 5509 5504 5499 5493 5487 5480 5473 5466 5458 5450 5441 5432 5422 5413 5404 5395 5387 5378 5370 5363 5356 5350 5345 5339 5334 5329 5324 5320 5315